Weather History for Eau Claire, WI

Change the Weather History Date:

Tuesday, January 29, 2013

  Actual Average Record
Temperature  
Mean Temperature 33 °F 15 °F  
Max Temperature 35 °F 24 °F 45 °F (1927)
Min Temperature 30 °F 6 °F -34 °F (1951)
Degree Days  
Heating Degree Days 32 50  
Month to date heating degree days 1410 1470  
Since 1 July heating degree days 4437 4646  
Cooling Degree Days 0 0  
Month to date cooling degree days 0 0  
Year to date cooling degree days 0 0  
Moisture  
Dew Point 30 °F    
Average Humidity 88    
Maximum Humidity 100    
Minimum Humidity 75    
Precipitation  
Precipitation 0.33 in 0.03 in 0.52 in (1987)
Month to date precipitation 1.01 0.83  
Year to date precipitation 1.01 0.83  
Snow  
Snow 0.00 in 0.40 in 6.30 in (1987)
Month to date snowfall 3.8 12.4  
Since 1 July snowfall 25.6 28.2  
Snow Depth 2.00 in    
Sea Level Pressure  
Sea Level Pressure 29.58 in    
Wind  
Wind Speed 7 mph (North)    
Max Wind Speed 16 mph    
Max Gust Speed 24 mph    
Visibility 6 miles    
Events Fog , Rain , Thunderstorm    
T = Trace of Precipitation, MM = Missing Value Source: NWS Daily Summary

Daily Weather History Graph

Daily Weather History Graph

Search for Another Location

Airport:

Trip Planner

Search our weather history database for the weather conditions in past years. The results will help you decide how hot, cold, wet, or windy it might be!

Date:

Astronomy

Jan. 29, 2013 Rise Set
Actual Time 7:28 AM CST 5:10 PM CST
Civil Twilight 6:57 AM CST 5:41 PM CST
Nautical Twilight 6:21 AM CST 6:17 PM CST
Astronomical Twilight 5:47 AM CST 6:51 PM CST
Moon 8:17 PM CST (1/29) 8:16 AM CST (1/29)
Length of Visible Light 10h 44m
Length of Day
9h 41m
Waning Gibbous, 93% of the Moon is Illuminated
Jan 29
Waning Gibbous
Feb 3
Last Quarter
Feb 10
New
Feb 17
First Quarter
Feb 25
Full

Hourly Weather History & Observations

Time (CST) Temp. Windchill Dew Point Humidity Pressure Visibility Wind Dir Wind Speed Gust Speed Precip Events Conditions
12:07 AM 33.8 °F 25.8 °F 30.2 °F 87% 29.64 in 7.0 mi ENE 10.4 mph - 0.01 in   Overcast
12:28 AM 33.8 °F 26.4 °F 30.2 °F 87% 29.61 in 4.0 mi East 9.2 mph - 0.09 in Rain , Thunderstorm Rain
12:43 AM 33.8 °F 24.3 °F 30.2 °F 87% 29.59 in 5.0 mi East 13.8 mph - 0.10 in Rain Rain
12:56 AM 33.1 °F 26.1 °F 30.9 °F 92% 29.63 in 7.0 mi ESE 8.1 mph - 0.11 in   Overcast
1:56 AM 33.1 °F 26.1 °F 32.0 °F 96% 29.61 in 2.5 mi East 8.1 mph - 0.06 in   Overcast
2:09 AM 33.8 °F 27.0 °F 32.0 °F 93% 29.57 in 4.0 mi East 8.1 mph - N/A   Overcast
2:56 AM 34.0 °F 28.8 °F 32.0 °F 92% 29.57 in 4.0 mi East 5.8 mph - 0.05 in Rain Rain
3:56 AM 34.0 °F 29.8 °F 32.0 °F 92% 29.55 in 4.0 mi ENE 4.6 mph - 0.04 in Rain Light Rain
4:28 AM 33.8 °F 30.8 °F 33.8 °F 100% 29.51 in 2.5 mi ENE 3.5 mph - 0.07 in Rain Light Rain
4:35 AM 33.8 °F 30.8 °F 33.8 °F 100% 29.51 in 3.0 mi ENE 3.5 mph - 0.08 in Rain Rain
4:56 AM 34.0 °F 29.8 °F 33.1 °F 96% 29.54 in 3.0 mi North 4.6 mph - 0.08 in   Overcast
5:08 AM 33.8 °F - 33.8 °F 100% 29.50 in 2.5 mi Calm Calm - N/A   Overcast
5:27 AM 33.8 °F 29.6 °F 33.8 °F 100% 29.49 in 1.5 mi ENE 4.6 mph - N/A   Overcast
5:56 AM 33.1 °F 30.0 °F 32.0 °F 96% 29.53 in 1.0 mi NNW 3.5 mph - N/A   Overcast
6:20 AM 33.8 °F 29.6 °F 32.0 °F 93% 29.48 in 0.8 mi East 4.6 mph - N/A   Overcast
6:56 AM 33.1 °F - 32.0 °F 96% 29.51 in 0.5 mi Calm Calm - N/A Fog Fog
7:56 AM 33.1 °F - 33.1 °F 100% 29.54 in 0.5 mi Calm Calm - N/A Fog Fog
8:16 AM 33.8 °F 30.8 °F 32.0 °F 93% 29.52 in 0.2 mi WSW 3.5 mph - N/A Fog Fog
8:56 AM 33.1 °F 28.7 °F 33.1 °F 100% 29.54 in 0.2 mi WSW 4.6 mph - N/A Fog Fog
9:27 AM 33.8 °F 28.6 °F 33.8 °F 100% 29.51 in 0.5 mi West 5.8 mph - N/A Fog Fog
9:56 AM 33.1 °F 26.9 °F 33.1 °F 100% 29.54 in 0.8 mi West 6.9 mph - N/A   Overcast
10:21 AM 33.8 °F 25.8 °F 33.8 °F 100% 29.54 in 3.0 mi West 10.4 mph - N/A   Overcast
10:56 AM 34.0 °F 25.0 °F 32.0 °F 92% 29.60 in 3.0 mi West 12.7 mph - N/A   Overcast
11:03 AM 33.8 °F 24.3 °F 32.0 °F 93% 29.58 in 3.0 mi West 13.8 mph - N/A   Overcast
11:56 AM 34.0 °F 26.6 °F 30.9 °F 89% 29.61 in 10.0 mi West 9.2 mph - N/A   Overcast
12:08 PM 33.8 °F 25.8 °F 30.2 °F 87% 29.58 in 10.0 mi West 10.4 mph - N/A   Overcast
12:56 PM 34.0 °F 26.6 °F 30.0 °F 85% 29.60 in 10.0 mi WNW 9.2 mph - N/A   Overcast
1:56 PM 35.1 °F 27.9 °F 28.9 °F 78% 29.59 in 10.0 mi NW 9.2 mph - N/A   Overcast
2:46 PM 35.6 °F 27.5 °F 28.4 °F 75% 29.56 in 10.0 mi NNW 11.5 mph 18.4 mph N/A   Overcast
2:56 PM 35.1 °F 29.3 °F 28.9 °F 78% 29.59 in 10.0 mi NNW 6.9 mph - N/A   Overcast
3:56 PM 35.1 °F 28.6 °F 28.9 °F 78% 29.62 in 10.0 mi North 8.1 mph - N/A   Overcast
4:56 PM 34.0 °F 29.8 °F 28.9 °F 82% 29.62 in 10.0 mi North 4.6 mph - N/A   Overcast
5:56 PM 34.0 °F 28.0 °F 28.0 °F 79% 29.63 in 10.0 mi North 6.9 mph - N/A   Overcast
6:56 PM 34.0 °F 28.0 °F 28.0 °F 79% 29.65 in 10.0 mi North 6.9 mph - N/A   Overcast
7:56 PM 34.0 °F 26.6 °F 28.0 °F 79% 29.63 in 10.0 mi North 9.2 mph - N/A   Overcast
8:26 PM 33.8 °F 27.7 °F 28.4 °F 81% 29.63 in 10.0 mi NNW 6.9 mph - N/A   Overcast
8:56 PM 33.1 °F 24.9 °F 27.0 °F 78% 29.66 in 10.0 mi NNW 10.4 mph - N/A   Overcast
9:27 PM 32.0 °F 21.2 °F 26.6 °F 80% 29.58 in 10.0 mi North 16.1 mph 21.9 mph N/A   Overcast
9:56 PM 32.0 °F 22.1 °F 26.1 °F 79% 29.66 in 10.0 mi NNW 13.8 mph - N/A   Overcast
10:49 PM 30.2 °F 20.8 °F 24.8 °F 80% 29.64 in 10.0 mi North 11.5 mph 20.7 mph N/A   Overcast
10:56 PM 30.0 °F 20.5 °F 24.1 °F 79% 29.68 in 10.0 mi NNW 11.5 mph 20.7 mph N/A   Overcast
11:56 PM 30.0 °F 21.7 °F 23.0 °F 75% 29.66 in 10.0 mi North 9.2 mph 20.7 mph N/A   Overcast